World > North America > United States > Washington

Hourly Cedarview, WA Regional Weather

Feedback E-mail the Weather

Quick WX

Cedarview, WA Weather Maps

°F °C°F °C
Cedarview Weather Map
UTC Time: 7/3/2022, 11:47
Your Time:

Cedarview, WA Regional Weather

Expires:202207031200;;605905
ASUS46 KSEW 031120
RWRWA 

WASHINGTON REGIONAL WEATHER ROUNDUP
NATIONAL WEATHER SERVICE SEATTLE WA
400 AM PDT SUN JUL 03 2022

NOTE:"FAIR" INDICATES FEW OR NO CLOUDS BELOW 12,000 FEET WITH NO 
SIGNIFICANT WEATHER AND/OR OBSTRUCTIONS TO VISIBILITY.


WAZ507-509-555>559-031200-
SEATTLE, TACOMA, EVERETT, AND VICINITY
  
CITY           SKY/WX    TMP DP  RH WIND       PRES   REMARKS
EVERETT        CLOUDY    56  52  86 N5        29.92S                  
BOEING FIELD   CLOUDY    57  52  83 S5        29.92S                  
RENTON         CLOUDY    59  50  72 S7        29.92R                  
SEATAC AIRPORT CLOUDY    56  51  84 SW8       29.92R                  
JBLM-MCCHORD   CLOUDY    54  54 100 S5        29.92S                  
PUYALLUP       CLOUDY    55  54  94 VRB5      29.93S                  
BREMERTON      CLOUDY    55  53  93 S6        29.92S                  
JBLM-FT LEWIS  CLOUDY    55  50  82 S6        29.91S                  
TACOMA NARROWS CLOUDY    55  52  89 S7        29.92S                  
$$
 

SKY/WX - Weather  TMP - Temperature  DP - Dew Point  RH - Humidity
WIND - Wind Direction/Speed PRES - Barometric Pressure VSB - Visibility
WCI - Wind Chill Index E13G22 Wind - East Wind 13 mph/Gusts of 22 mph

Trending Headlines

Cedarview Radar Loop



Cedarview Quick Facts


National Two Day Weather Forecast


E-mail the Cedarview Weather Forecast

Voice your opinion or tell us about page issues...